This is the latest recevied weather packets stored in our database for station/object W3BRL. If no packets are shown the sender has not sent any weather packets the latest 10 day(s).
| Time | Temp. | Humidity | Pressure | Rain* | Wind** | Luminosity | Snow |
|---|---|---|---|---|---|---|---|
| 1778111738 | 11.11° C | 66% | 1010.4 hPa | 0 mm | - | 6 W/m² | - |
| 1778111433 | 11.11° C | 66% | 1010.2 hPa | 0 mm | - | 9 W/m² | - |
| 1778111131 | 11.11° C | 66% | 1010.1 hPa | 0 mm | - | 8 W/m² | - |
| 1778110828 | 11.67° C | 68% | 1010.1 hPa | 0 mm | - | 11 W/m² | - |
| 1778110525 | 11.67° C | 69% | 1010 hPa | 0 mm | - | 13 W/m² | - |
| 1778110222 | 11.67° C | 69% | 1010 hPa | 0 mm | - | 17 W/m² | - |
| 1778109917 | 11.67° C | 70% | 1009.9 hPa | 0 mm | - | 20 W/m² | - |
| 1778109613 | 11.67° C | 68% | 1009.7 hPa | 0 mm | - | 22 W/m² | - |
| 1778109311 | 11.67° C | 67% | 1009.9 hPa | 0 mm | - | 31 W/m² | - |
| 1778109009 | 11.67° C | 68% | 1009.7 hPa | 0 mm | - | 35 W/m² | - |
| 1778108704 | 11.67° C | 67% | 1009.4 hPa | 0 mm | - | 48 W/m² | - |
| 1778108402 | 11.67° C | 68% | 1009.4 hPa | 0 mm | - | 62 W/m² | - |
| 1778108099 | 11.67° C | 69% | 1009.6 hPa | 0 mm | - | 79 W/m² | - |
| 1778107795 | 11.67° C | 68% | 1009.6 hPa | 0 mm | - | 85 W/m² | - |
| 1778107492 | 11.67° C | 70% | 1009.5 hPa | 0 mm | - | 65 W/m² | - |
| 1778107188 | 11.67° C | 69% | 1009.5 hPa | 0 mm | - | 50 W/m² | - |
| 1778106884 | 11.67° C | 69% | 1009.3 hPa | 0 mm | - | 51 W/m² | - |
| 1778106582 | 11.67° C | 69% | 1009.5 hPa | 0 mm | - | 59 W/m² | - |
| 1778106278 | 11.67° C | 68% | 1009.4 hPa | 0 mm | - | 58 W/m² | - |
| 1778105975 | 11.67° C | 69% | 1009.4 hPa | 0 mm | - | 47 W/m² | - |
| 1778105672 | 11.67° C | 68% | 1009.3 hPa | 0 mm | - | 35 W/m² | - |
| 1778105370 | 12.22° C | 68% | 1009.3 hPa | 0 mm | - | 53 W/m² | - |
| 1778105065 | 12.22° C | 68% | 1009.2 hPa | 0 mm | - | 48 W/m² | - |
| 1778104762 | 12.22° C | 69% | 1009.2 hPa | 0 mm | - | 69 W/m² | - |
| 1778104458 | 12.22° C | 68% | 1009 hPa | 0 mm | - | 108 W/m² | - |
* Rain latest hour (hover to see other rain measurements)
** Current wind speed in m/s (hover to see current wind gust speed)